Hourly Weather Rusiv

Today, 22 April, Thursday

Time Temperature Precipitation Wind Pressure Humidity
00:00 +7°C° 0 mm 3 mps 741 mmHg 88%
01:00 +7°C° 0 mm 3 mps 741 mmHg 89%
02:00 +5°C° 0 mm 3 mps 741 mmHg 90%
03:00 +5°C° 0 mm 3 mps 741 mmHg 90%
04:00 +5°C° 0 mm 3 mps 741 mmHg 90%
05:00 +5°C° 0 mm 3 mps 741 mmHg 90%
06:00 +6°C° 0.1 mm 4 mps 742 mmHg 87%
07:00 +7°C° 0.1 mm 4 mps 742 mmHg 84%
08:00 +8°C° 0.1 mm 5 mps 742 mmHg 81%
09:00 +9°C° 0.2 mm 5 mps 742 mmHg 76%
10:00 +10°C° 0.2 mm 6 mps 742 mmHg 72%
11:00 +11°C° 0.2 mm 6 mps 742 mmHg 67%
12:00 +10°C° 0.5 mm 6 mps 742 mmHg 72%
13:00 +8°C° 0.5 mm 6 mps 742 mmHg 76%
14:00 +7°C° 0.5 mm 6 mps 743 mmHg 81%
15:00 +6°C° 0.1 mm 5 mps 743 mmHg 80%
16:00 +6°C° 0.1 mm 5 mps 743 mmHg 80%
17:00 +5°C° 0.1 mm 4 mps 744 mmHg 79%
18:00 +4°C° 0 mm 4 mps 744 mmHg 80%
19:00 +4°C° 0 mm 3 mps 744 mmHg 82%
20:00 +3°C° 0 mm 3 mps 744 mmHg 83%
21:00 +3°C° 0 mm 3 mps 744 mmHg 83%
22:00 +2°C° 0 mm 3 mps 745 mmHg 82%
23:00 +2°C° 0 mm 3 mps 745 mmHg 81%

Tomorrow, 23 April, Friday

Time Temperature Precipitation Wind Pressure Humidity
00:00 +2°C° 0 mm 3 mps 745 mmHg 81%
01:00 +1°C° 0 mm 3 mps 745 mmHg 81%
02:00 +1°C° 0 mm 3 mps 745 mmHg 81%
03:00 0°C° 0 mm 3 mps 745 mmHg 84%
04:00 0°C° 0 mm 3 mps 745 mmHg 86%
05:00 0°C° 0 mm 3 mps 745 mmHg 89%
06:00 0°C° 0 mm 4 mps 746 mmHg 81%
07:00 +1°C° 0 mm 5 mps 746 mmHg 73%
08:00 +2°C° 0 mm 5 mps 746 mmHg 66%
09:00 +3°C° 0 mm 6 mps 746 mmHg 61%
10:00 +4°C° 0 mm 6 mps 746 mmHg 55%
11:00 +7°C° 0 mm 6 mps 746 mmHg 50%
12:00 +7°C° 0.2 mm 6 mps 746 mmHg 49%
13:00 +7°C° 0.2 mm 6 mps 746 mmHg 49%
14:00 +8°C° 0.2 mm 6 mps 746 mmHg 48%
15:00 +7°C° 0.2 mm 6 mps 746 mmHg 49%
16:00 +7°C° 0.2 mm 5 mps 746 mmHg 50%
17:00 +7°C° 0.2 mm 5 mps 746 mmHg 51%
18:00 +6°C° 0.1 mm 4 mps 746 mmHg 60%
19:00 +5°C° 0.1 mm 4 mps 746 mmHg 69%
20:00 +3°C° 0.1 mm 3 mps 746 mmHg 77%
21:00 +3°C° 0 mm 4 mps 746 mmHg 80%
22:00 +1°C° 0 mm 5 mps 746 mmHg 83%
23:00 +1°C° 0 mm 6 mps 746 mmHg 86%

Day after tomorrow, 24 April, Saturday

Time Temperature Precipitation Wind Pressure Humidity
00:00 0°C° 0.1 mm 5 mps 746 mmHg 86%
01:00 -1°C° 0.1 mm 5 mps 747 mmHg 85%
02:00 -1°C° 0.1 mm 4 mps 747 mmHg 85%
03:00 -2°C° 0 mm 4 mps 747 mmHg 87%
04:00 -2°C° 0 mm 4 mps 747 mmHg 89%
05:00 -3°C° 0 mm 4 mps 748 mmHg 91%
06:00 -1°C° 0 mm 4 mps 748 mmHg 82%
07:00 0°C° 0 mm 5 mps 748 mmHg 74%
08:00 +1°C° 0 mm 5 mps 749 mmHg 65%
09:00 +2°C° 0.1 mm 5 mps 749 mmHg 58%
10:00 +5°C° 0.1 mm 5 mps 748 mmHg 51%
11:00 +5°C° 0.1 mm 6 mps 748 mmHg 43%
12:00 +5°C° 0 mm 6 mps 748 mmHg 42%
13:00 +7°C° 0 mm 6 mps 748 mmHg 40%
14:00 +7°C° 0 mm 6 mps 748 mmHg 38%
15:00 +7°C° 0 mm 6 mps 748 mmHg 41%
16:00 +7°C° 0 mm 5 mps 748 mmHg 43%
17:00 +7°C° 0 mm 5 mps 747 mmHg 46%
18:00 +6°C° 0 mm 4 mps 747 mmHg 52%
19:00 +4°C° 0 mm 3 mps 747 mmHg 58%
20:00 +4°C° 0 mm 2 mps 747 mmHg 63%
21:00 +4°C° 0 mm 2 mps 747 mmHg 66%
22:00 +3°C° 0 mm 3 mps 747 mmHg 68%
23:00 +3°C° 0 mm 3 mps 747 mmHg 70%

25 April, Sunday

Time Temperature Precipitation Wind Pressure Humidity
00:00 +2°C° 0.2 mm 3 mps 747 mmHg 79%
01:00 +2°C° 0.2 mm 3 mps 747 mmHg 87%
02:00 +1°C° 0.2 mm 3 mps 747 mmHg 96%
03:00 +1°C° 0.1 mm 3 mps 747 mmHg 95%
04:00 +1°C° 0.1 mm 3 mps 747 mmHg 95%
05:00 0°C° 0.1 mm 3 mps 747 mmHg 95%
06:00 +1°C° 0.2 mm 3 mps 747 mmHg 87%
07:00 +1°C° 0.2 mm 3 mps 747 mmHg 80%
08:00 +1°C° 0.2 mm 3 mps 747 mmHg 73%
09:00 +3°C° 0 mm 4 mps 747 mmHg 65%
10:00 +4°C° 0 mm 4 mps 747 mmHg 57%
11:00 +5°C° 0 mm 4 mps 747 mmHg 48%
12:00 +5°C° 0 mm 4 mps 747 mmHg 46%
13:00 +6°C° 0 mm 4 mps 747 mmHg 44%
14:00 +6°C° 0 mm 5 mps 747 mmHg 42%
15:00 +6°C° 0.1 mm 5 mps 747 mmHg 46%
16:00 +6°C° 0.1 mm 5 mps 747 mmHg 51%
17:00 +6°C° 0.1 mm 5 mps 746 mmHg 55%
18:00 +4°C° 0.2 mm 4 mps 746 mmHg 62%
19:00 +3°C° 0.2 mm 3 mps 746 mmHg 68%
20:00 +2°C° 0.2 mm 3 mps 746 mmHg 74%
21:00 +1°C° 0 mm 3 mps 746 mmHg 77%
22:00 +1°C° 0 mm 3 mps 746 mmHg 79%
23:00 0°C° 0 mm 3 mps 746 mmHg 82%

26 April, Monday

Time Temperature Precipitation Wind Pressure Humidity
00:00 0°C° 0 mm 3 mps 746 mmHg 84%
01:00 -1°C° 0 mm 3 mps 746 mmHg 86%
02:00 -1°C° 0 mm 3 mps 746 mmHg 89%
03:00 -1°C° 0 mm 3 mps 746 mmHg 89%
04:00 -2°C° 0 mm 3 mps 746 mmHg 90%
05:00 -2°C° 0 mm 3 mps 746 mmHg 90%
06:00 0°C° 0 mm 3 mps 746 mmHg 83%
07:00 +1°C° 0 mm 3 mps 746 mmHg 75%
08:00 +1°C° 0 mm 4 mps 746 mmHg 68%
09:00 +3°C° 0 mm 4 mps 746 mmHg 59%
10:00 +3°C° 0 mm 5 mps 746 mmHg 50%
11:00 +5°C° 0 mm 5 mps 746 mmHg 42%
12:00 +6°C° 0 mm 5 mps 745 mmHg 43%
13:00 +5°C° 0 mm 6 mps 745 mmHg 44%
14:00 +7°C° 0 mm 6 mps 745 mmHg 45%
15:00 +7°C° 0.1 mm 6 mps 744 mmHg 47%
16:00 +7°C° 0.1 mm 5 mps 744 mmHg 48%
17:00 +7°C° 0.1 mm 5 mps 744 mmHg 49%
18:00 +6°C° 0 mm 4 mps 744 mmHg 56%
19:00 +4°C° 0 mm 3 mps 744 mmHg 63%
20:00 +4°C° 0 mm 2 mps 744 mmHg 69%
21:00 +3°C° 0 mm 2 mps 744 mmHg 73%
22:00 +2°C° 0 mm 2 mps 745 mmHg 77%
23:00 +2°C° 0 mm 2 mps 745 mmHg 80%

27 April, Tuesday

Time Temperature Precipitation Wind Pressure Humidity
00:00 +1°C° 0 mm 2 mps 745 mmHg 83%
01:00 +1°C° 0 mm 2 mps 745 mmHg 85%
02:00 -1°C° 0 mm 2 mps 745 mmHg 88%
03:00 +1°C° 0 mm 1 mps 745 mmHg 88%
04:00 +1°C° 0 mm 1 mps 745 mmHg 88%
05:00 +1°C° 0 mm 1 mps 744 mmHg 89%
06:00 +2°C° 0 mm 1 mps 745 mmHg 82%
07:00 +4°C° 0 mm 1 mps 745 mmHg 75%
08:00 +6°C° 0 mm 1 mps 745 mmHg 68%
09:00 +7°C° 0 mm 1 mps 745 mmHg 62%
10:00 +9°C° 0 mm 1 mps 744 mmHg 57%
11:00 +10°C° 0 mm 1 mps 744 mmHg 51%
12:00 +11°C° 0 mm 1 mps 744 mmHg 49%
13:00 +12°C° 0 mm 2 mps 743 mmHg 47%
14:00 +12°C° 0 mm 2 mps 743 mmHg 45%
15:00 +12°C° 0 mm 2 mps 742 mmHg 46%
16:00 +13°C° 0 mm 2 mps 742 mmHg 47%
17:00 +12°C° 0 mm 3 mps 741 mmHg 49%
18:00 +10°C° 0 mm 3 mps 741 mmHg 55%
19:00 +9°C° 0 mm 3 mps 741 mmHg 61%
20:00 +7°C° 0 mm 3 mps 741 mmHg 68%
21:00 +6°C° 0 mm 4 mps 740 mmHg 67%
22:00 +5°C° 0 mm 4 mps 740 mmHg 67%
23:00 +5°C° 0 mm 4 mps 740 mmHg 66%
Show more